Starlink 32726

operational
NORAD ID: 62446 Int'l Des: 2024-251 Owner: SPXS Country: US Constellation: starlink
LEOCIRCULAR

关于 Starlink 32726

正在加载描述...

实时位置

正在加载3D地球...

即将过境

高度历史

Altitude vs Time

uPlot chart will show altitude changes over time

两行轨道根数

1 62446U 24251Q 25350.30614469 .00015943 00000-0 54928-3 0 9997
2 62446 53.1603 2.4928 0001585 79.5916 280.5263 15.30199377 54878
Epoch: Dec 16, 2025 • Age: 27 hours

当前状态

高度 476.0 km
速度 7.63 km/s
星下点 27.90°N, 91.68°W
发射日期 Dec 29, 2024
运行时间 0.9 years
类型 internet

技术详情

分类 Payload
质量 730.00 kg
干质量 700.00 kg
总质量 730.00 kg
长度 0.30 m
直径 4.10 m
跨度 29.00 m
形状 Box + pan
制造商 SPXS
平台类型 Starlink V2M
阶段状态 In Orbit
所有者/国家 SPXS/US

大型星座

Loading constellations...